Time,TemperatureF,DewpointF,PressureIn,WindDirection,WindDirectionDegrees,WindSpeedMPH,WindSpeedGustMPH,Humidity,HourlyPrecipIn,Conditions,Clouds,dailyrainin,SoftwareType,DateUTC
2013-03-27 00:03:00,39.0,26.0,-100.00,NW,304,3.0,5.0,59,0.00,,,-99.99,,2013-03-27 04:03:00,
2013-03-27 00:13:00,39.0,26.0,-100.00,NW,304,3.0,5.0,59,0.00,,,-99.99,,2013-03-27 04:13:00,
2013-03-27 00:23:00,39.0,26.0,-100.00,NW,304,3.0,5.0,59,0.00,,,-99.99,,2013-03-27 04:23:00,
2013-03-27 00:33:00,38.0,25.0,-100.00,NW,312,5.0,10.0,58,0.00,,,-99.99,,2013-03-27 04:33:00,
2013-03-27 00:42:00,38.0,25.0,-100.00,NW,318,6.0,10.0,59,0.00,,,-99.99,,2013-03-27 04:42:00,
2013-03-27 00:53:00,38.0,25.0,-100.00,NW,318,6.0,10.0,59,0.00,,,-99.99,,2013-03-27 04:53:00,
2013-03-27 01:03:00,38.0,25.0,-100.00,NW,318,6.0,10.0,59,0.00,,,-99.99,,2013-03-27 05:03:00,
2013-03-27 01:13:00,38.0,26.0,-100.00,NW,318,3.0,6.0,61,0.00,,,-99.99,,2013-03-27 05:13:00,
2013-03-27 01:23:00,38.0,26.0,-100.00,NW,318,3.0,6.0,61,0.00,,,-99.99,,2013-03-27 05:23:00,
2013-03-27 01:33:00,38.0,26.0,-100.00,NW,312,6.0,9.0,60,0.00,,,-99.99,,2013-03-27 05:33:00,
2013-03-27 01:42:00,38.0,26.0,-100.00,NW,312,6.0,9.0,60,0.00,,,-99.99,,2013-03-27 05:42:00,
2013-03-27 01:53:00,38.0,25.0,-100.00,NW,304,3.0,5.0,60,0.00,,,-99.99,,2013-03-27 05:53:00,
2013-03-27 02:02:00,37.0,26.0,-100.00,NW,305,3.0,5.0,63,0.00,,,-99.99,,2013-03-27 06:02:00,
2013-03-27 02:12:00,37.0,26.0,-100.00,NW,305,3.0,5.0,63,0.00,,,-99.99,,2013-03-27 06:12:00,
2013-03-27 02:22:00,37.0,26.0,-100.00,NW,305,3.0,5.0,63,0.00,,,-99.99,,2013-03-27 06:22:00,
2013-03-27 02:32:00,37.0,26.0,-100.00,NW,319,6.0,11.0,63,0.00,,,-99.99,,2013-03-27 06:32:00,
2013-03-27 02:42:00,37.0,26.0,-100.00,NW,319,6.0,11.0,63,0.00,,,-99.99,,2013-03-27 06:42:00,
2013-03-27 02:53:00,37.0,26.0,-100.00,NW,325,5.0,8.0,63,0.00,,,-99.99,,2013-03-27 06:53:00,
2013-03-27 03:00:00,36.0,26.0,-100.00,NW,313,4.0,7.0,65,0.00,,,-99.99,,2013-03-27 07:00:00,
2013-03-27 03:02:00,37.0,26.0,-100.00,NW,325,5.0,8.0,63,0.00,,,-99.99,,2013-03-27 07:02:00,
2013-03-27 03:12:00,37.0,26.0,-100.00,NW,326,6.0,10.0,62,0.00,,,-99.99,,2013-03-27 07:12:00,
2013-03-27 03:22:00,37.0,26.0,-100.00,NW,326,6.0,10.0,62,0.00,,,-99.99,,2013-03-27 07:22:00,
2013-03-27 03:32:00,36.0,26.0,-100.00,NW,313,4.0,7.0,65,0.00,,,-99.99,,2013-03-27 07:32:00,
2013-03-27 03:42:00,36.0,26.0,-100.00,NW,313,4.0,7.0,65,0.00,,,-99.99,,2013-03-27 07:42:00,
2013-03-27 03:54:00,36.0,26.0,-100.00,NW,313,4.0,7.0,65,0.00,,,-99.99,,2013-03-27 07:54:00,
2013-03-27 04:13:00,35.0,26.0,-100.00,NW,322,3.0,5.0,69,0.00,,,-99.99,,2013-03-27 08:13:00,
2013-03-27 04:22:00,35.0,26.0,-100.00,NW,322,3.0,5.0,69,0.00,,,-99.99,,2013-03-27 08:22:00,
2013-03-27 04:32:00,35.0,26.0,-100.00,NW,322,6.0,10.0,69,0.00,,,-99.99,,2013-03-27 08:32:00,
2013-03-27 04:43:00,34.0,26.0,-100.00,NW,320,3.0,6.0,71,0.00,,,-99.99,,2013-03-27 08:43:00,
2013-03-27 04:52:00,34.0,26.0,-100.00,NW,320,3.0,6.0,71,0.00,,,-99.99,,2013-03-27 08:52:00,
2013-03-27 05:02:00,34.0,26.0,-100.00,NW,320,3.0,6.0,71,0.00,,,-99.99,,2013-03-27 09:02:00,
2013-03-27 05:12:00,35.0,26.0,-100.00,NW,320,3.0,5.0,71,0.00,,,-99.99,,2013-03-27 09:12:00,
2013-03-27 05:22:00,34.0,26.0,-100.00,NW,320,4.0,8.0,70,0.00,,,-99.99,,2013-03-27 09:22:00,
2013-03-27 05:33:00,34.0,26.0,-100.00,NW,320,4.0,8.0,70,0.00,,,-99.99,,2013-03-27 09:33:00,
2013-03-27 05:42:00,34.0,26.0,-100.00,NW,320,4.0,8.0,70,0.00,,,-99.99,,2013-03-27 09:42:00,
2013-03-27 05:52:00,35.0,26.0,-100.00,NW,320,4.0,6.0,70,0.00,,,-99.99,,2013-03-27 09:52:00,
2013-03-27 06:03:00,35.0,26.0,-100.00,NW,320,4.0,6.0,70,0.00,,,-99.99,,2013-03-27 10:03:00,
2013-03-27 06:13:00,35.0,25.0,-100.00,NW,326,5.0,9.0,69,0.00,,,-99.99,,2013-03-27 10:13:00,
2013-03-27 06:23:00,35.0,25.0,-100.00,NW,326,5.0,9.0,69,0.00,,,-99.99,,2013-03-27 10:23:00,
2013-03-27 06:32:00,34.0,25.0,-100.00,NW,313,5.0,8.0,70,0.00,,,-99.99,,2013-03-27 10:32:00,
2013-03-27 06:42:00,34.0,25.0,-100.00,NW,312,4.0,7.0,71,0.00,,,-99.99,,2013-03-27 10:42:00,
2013-03-27 06:53:00,34.0,25.0,-100.00,NW,312,4.0,7.0,71,0.00,,,-99.99,,2013-03-27 10:53:00,
2013-03-27 07:03:00,33.0,25.0,-100.00,NW,312,4.0,7.0,71,0.00,,,-99.99,,2013-03-27 11:03:00,
2013-03-27 07:12:00,33.0,25.0,-100.00,NW,312,4.0,7.0,71,0.00,,,-99.99,,2013-03-27 11:12:00,
2013-03-27 07:22:00,33.0,25.0,-100.00,NW,312,4.0,7.0,71,0.00,,,-99.99,,2013-03-27 11:22:00,
2013-03-27 07:32:00,34.0,25.0,-100.00,NW,316,5.0,7.0,71,0.00,,,-99.99,,2013-03-27 11:32:00,
2013-03-27 07:42:00,34.0,25.0,-100.00,NW,316,5.0,7.0,71,0.00,,,-99.99,,2013-03-27 11:42:00,
2013-03-27 07:53:00,-999.0,26.0,-100.00,WNW,302,6.0,9.0,72,0.00,,,-99.99,,2013-03-27 11:53:00,
2013-03-27 08:02:00,34.0,26.0,-100.00,NW,316,3.0,5.0,73,0.00,,,-99.99,,2013-03-27 12:02:00,
2013-03-27 08:12:00,34.0,26.0,-100.00,NW,316,3.0,5.0,73,0.00,,,-99.99,,2013-03-27 12:12:00,
2013-03-27 08:23:00,34.0,26.0,-100.00,NW,316,3.0,5.0,73,0.00,,,-99.99,,2013-03-27 12:23:00,
2013-03-27 08:32:00,35.0,26.0,-100.00,North,-999,13.0,13.0,69,0.00,,,-99.99,,2013-03-27 12:32:00,
2013-03-27 08:43:00,36.0,25.0,-100.00,NW,313,6.0,11.0,66,0.00,,,-99.99,,2013-03-27 12:43:00,
2013-03-27 08:52:00,36.0,25.0,-100.00,NW,313,6.0,11.0,66,0.00,,,-99.99,,2013-03-27 12:52:00,
2013-03-27 09:02:00,37.0,25.0,-100.00,NW,318,5.0,9.0,63,0.00,,,-99.99,,2013-03-27 13:02:00,
2013-03-27 09:12:00,37.0,25.0,-100.00,NW,318,5.0,9.0,63,0.00,,,-99.99,,2013-03-27 13:12:00,
2013-03-27 09:20:00,40.0,25.0,-100.00,NNW,329,8.0,12.0,55,0.00,,,-99.99,,2013-03-27 13:20:00,
2013-03-27 09:22:00,38.0,25.0,-100.00,NW,322,5.0,8.0,59,0.00,,,-99.99,,2013-03-27 13:22:00,
2013-03-27 09:32:00,38.0,25.0,-100.00,NW,322,5.0,8.0,59,0.00,,,-99.99,,2013-03-27 13:32:00,
2013-03-27 09:42:00,38.0,25.0,-100.00,NW,322,5.0,8.0,59,0.00,,,-99.99,,2013-03-27 13:42:00,
2013-03-27 09:53:00,40.0,25.0,-100.00,NNW,329,8.0,12.0,55,0.00,,,-99.99,,2013-03-27 13:53:00,
2013-03-27 10:02:00,40.0,25.0,-100.00,NNW,329,8.0,12.0,55,0.00,,,-99.99,,2013-03-27 14:02:00,
2013-03-27 10:12:00,40.0,25.0,-100.00,NNW,329,8.0,12.0,55,0.00,,,-99.99,,2013-03-27 14:12:00,
2013-03-27 12:33:00,47.0,21.0,-100.00,NNE,17,12.0,17.0,36,0.00,,,-99.99,,2013-03-27 16:33:00,
2013-03-27 12:42:00,47.0,21.0,-100.00,NNE,17,12.0,17.0,36,0.00,,,-99.99,,2013-03-27 16:42:00,
2013-03-27 12:52:00,47.0,22.0,-100.00,NNE,20,9.0,15.0,36,0.00,,,-99.99,,2013-03-27 16:52:00,
2013-03-27 13:03:00,48.0,23.0,-100.00,NNE,13,9.0,12.0,37,0.00,,,-99.99,,2013-03-27 17:03:00,
2013-03-27 13:12:00,48.0,23.0,-100.00,NNE,13,9.0,12.0,37,0.00,,,-99.99,,2013-03-27 17:12:00,
2013-03-27 13:22:00,48.0,23.0,-100.00,NNE,13,9.0,12.0,37,0.00,,,-99.99,,2013-03-27 17:22:00,
2013-03-27 13:32:00,48.0,21.0,-100.00,North,360,11.0,15.0,34,0.00,,,-99.99,,2013-03-27 17:32:00,
2013-03-27 13:44:00,48.0,20.0,-100.00,NNE,14,11.0,18.0,33,0.00,,,-99.99,,2013-03-27 17:44:00,
2013-03-27 13:52:00,48.0,20.0,-100.00,NNE,14,11.0,18.0,33,0.00,,,-99.99,,2013-03-27 17:52:00,
2013-03-27 14:02:00,49.0,21.0,-100.00,NNE,16,9.0,17.0,34,0.00,,,-99.99,,2013-03-27 18:02:00,
2013-03-27 14:12:00,49.0,21.0,-100.00,NNE,16,9.0,17.0,34,0.00,,,-99.99,,2013-03-27 18:12:00,
2013-03-27 14:22:00,50.0,20.0,-100.00,North,7,10.0,15.0,30,0.00,,,-99.99,,2013-03-27 18:22:00,
2013-03-27 14:32:00,50.0,20.0,-100.00,North,7,10.0,15.0,30,0.00,,,-99.99,,2013-03-27 18:32:00,
2013-03-27 14:42:00,50.0,20.0,-100.00,North,7,10.0,15.0,30,0.00,,,-99.99,,2013-03-27 18:42:00,
2013-03-27 14:53:00,49.0,21.0,-100.00,North,353,9.0,13.0,32,0.00,,,-99.99,,2013-03-27 18:53:00,
2013-03-27 15:03:00,49.0,21.0,-100.00,North,353,9.0,13.0,32,0.00,,,-99.99,,2013-03-27 19:03:00,
2013-03-27 15:12:00,49.0,20.0,-100.00,North,359,12.0,16.0,31,0.00,,,-99.99,,2013-03-27 19:12:00,
2013-03-27 15:22:00,49.0,20.0,-100.00,North,6,10.0,17.0,32,0.00,,,-99.99,,2013-03-27 19:22:00,
2013-03-27 15:32:00,49.0,20.0,-100.00,North,6,10.0,17.0,32,0.00,,,-99.99,,2013-03-27 19:32:00,
2013-03-27 15:42:00,50.0,17.0,-100.00,North,359,13.0,19.0,27,0.00,,,-99.99,,2013-03-27 19:42:00,
2013-03-27 15:52:00,50.0,17.0,-100.00,North,359,13.0,19.0,27,0.00,,,-99.99,,2013-03-27 19:52:00,
2013-03-27 16:03:00,50.0,17.0,-100.00,North,359,13.0,19.0,27,0.00,,,-99.99,,2013-03-27 20:03:00,
2013-03-27 16:12:00,50.0,18.0,-100.00,North,6,10.0,16.0,28,0.00,,,0.00,,2013-03-27 20:12:00,
2013-03-27 16:22:00,50.0,18.0,-100.00,North,6,10.0,16.0,28,0.00,,,0.00,,2013-03-27 20:22:00,
2013-03-27 16:32:00,49.0,19.0,-100.00,North,8,9.0,13.0,31,0.00,,,0.00,,2013-03-27 20:32:00,
2013-03-27 16:43:00,48.0,18.0,-100.00,NNW,342,6.0,10.0,30,0.00,,,0.00,,2013-03-27 20:43:00,
2013-03-27 16:52:00,48.0,18.0,-100.00,NNW,342,6.0,10.0,30,0.00,,,0.00,,2013-03-27 20:52:00,
2013-03-27 17:02:00,49.0,19.0,-100.00,NNW,346,9.0,14.0,31,0.00,,,0.00,,2013-03-27 21:02:00,
2013-03-27 17:12:00,49.0,19.0,-100.00,NNW,346,9.0,14.0,31,0.00,,,0.00,,2013-03-27 21:12:00,
2013-03-27 17:22:00,49.0,19.0,-100.00,NNW,347,7.0,12.0,30,0.00,,,0.00,,2013-03-27 21:22:00,
2013-03-27 17:32:00,49.0,19.0,-100.00,NNW,347,7.0,12.0,30,0.00,,,0.00,,2013-03-27 21:32:00,
2013-03-27 17:43:00,49.0,19.0,-100.00,NNW,347,7.0,12.0,30,0.00,,,0.00,,2013-03-27 21:43:00,
2013-03-27 17:52:00,49.0,18.0,-100.00,NNW,346,10.0,15.0,29,0.00,,,0.00,,2013-03-27 21:52:00,
2013-03-27 18:03:00,50.0,18.0,-100.00,NNW,333,8.0,12.0,28,0.00,,,0.00,,2013-03-27 22:03:00,
2013-03-27 18:12:00,50.0,18.0,-100.00,NNW,333,8.0,12.0,28,0.00,,,0.00,,2013-03-27 22:12:00,
2013-03-27 18:23:00,50.0,18.0,-100.00,NNW,333,8.0,12.0,28,0.00,,,0.00,,2013-03-27 22:23:00,
2013-03-27 18:33:00,49.0,19.0,-100.00,NNE,16,13.0,19.0,31,0.00,,,0.00,,2013-03-27 22:33:00,
2013-03-27 18:42:00,49.0,19.0,-100.00,NNE,16,13.0,19.0,31,0.00,,,0.00,,2013-03-27 22:42:00,
2013-03-27 18:53:00,49.0,17.0,-100.00,NNW,346,11.0,17.0,28,0.00,,,0.00,,2013-03-27 22:53:00,
2013-03-27 19:02:00,49.0,17.0,-100.00,NNW,346,11.0,17.0,28,0.00,,,0.00,,2013-03-27 23:02:00,
2013-03-27 19:12:00,48.0,19.0,-100.00,North,354,10.0,16.0,31,0.00,,,0.00,,2013-03-27 23:12:00,
2013-03-27 19:22:00,48.0,19.0,-100.00,North,354,10.0,16.0,31,0.00,,,0.00,,2013-03-27 23:22:00,
2013-03-27 19:32:00,48.0,19.0,-100.00,North,354,10.0,16.0,31,0.00,,,0.00,,2013-03-27 23:32:00,
2013-03-27 19:42:00,46.0,18.0,-100.00,NNW,340,9.0,13.0,32,0.00,,,0.00,,2013-03-27 23:42:00,
2013-03-27 19:52:00,46.0,18.0,-100.00,NNW,340,9.0,13.0,32,0.00,,,0.00,,2013-03-27 23:52:00,
2013-03-27 20:02:00,46.0,18.0,-100.00,NNW,340,9.0,13.0,32,0.00,,,0.00,,2013-03-28 00:02:00,
2013-03-27 20:12:00,45.0,19.0,-100.00,North,354,8.0,12.0,34,0.00,,,0.00,,2013-03-28 00:12:00,
2013-03-27 20:22:00,45.0,19.0,-100.00,North,354,8.0,12.0,34,0.00,,,0.00,,2013-03-28 00:22:00,
2013-03-27 20:33:00,45.0,19.0,-100.00,North,354,8.0,12.0,34,0.00,,,0.00,,2013-03-28 00:33:00,
2013-03-27 20:52:00,44.0,21.0,-100.00,NNW,340,7.0,12.0,39,0.00,,,0.00,,2013-03-28 00:52:00,
2013-03-27 21:02:00,44.0,21.0,-100.00,NW,326,7.0,11.0,40,0.00,,,0.00,,2013-03-28 01:02:00,
2013-03-27 21:12:00,44.0,21.0,-100.00,NW,326,7.0,11.0,40,0.00,,,0.00,,2013-03-28 01:12:00,
2013-03-27 21:22:00,44.0,21.0,-100.00,NW,326,7.0,11.0,40,0.00,,,0.00,,2013-03-28 01:22:00,
2013-03-27 21:32:00,43.0,21.0,-100.00,NNW,337,4.0,9.0,41,0.00,,,0.00,,2013-03-28 01:32:00,
2013-03-27 21:42:00,42.0,20.0,-100.00,NW,316,4.0,5.0,41,0.00,,,0.00,,2013-03-28 01:42:00,
2013-03-27 21:53:00,42.0,20.0,-100.00,NW,316,4.0,5.0,41,0.00,,,0.00,,2013-03-28 01:53:00,
2013-03-27 22:03:00,42.0,21.0,-100.00,NW,304,2.0,4.0,44,0.00,,,0.00,,2013-03-28 02:03:00,
2013-03-27 22:12:00,42.0,21.0,-100.00,NW,304,2.0,4.0,44,0.00,,,0.00,,2013-03-28 02:12:00,
2013-03-27 22:22:00,40.0,22.0,-100.00,NW,305,3.0,4.0,48,0.00,,,0.00,,2013-03-28 02:22:00,
2013-03-27 22:32:00,40.0,22.0,-100.00,NW,305,3.0,4.0,48,0.00,,,0.00,,2013-03-28 02:32:00,
2013-03-27 22:42:00,40.0,22.0,-100.00,NW,305,3.0,4.0,48,0.00,,,0.00,,2013-03-28 02:42:00,
2013-03-27 22:52:00,40.0,22.0,-100.00,NW,305,3.0,4.0,48,0.00,,,0.00,,2013-03-28 02:52:00,
2013-03-27 23:02:00,40.0,22.0,-100.00,NW,304,2.0,4.0,49,0.00,,,0.00,,2013-03-28 03:02:00,
2013-03-27 23:12:00,39.0,24.0,-100.00,WNW,291,2.0,3.0,54,0.00,,,0.00,,2013-03-28 03:12:00,
2013-03-27 23:22:00,39.0,24.0,-100.00,WNW,291,2.0,3.0,54,0.00,,,0.00,,2013-03-28 03:22:00,
2013-03-27 23:33:00,38.0,22.0,-100.00,NW,326,4.0,5.0,52,0.00,,,0.00,,2013-03-28 03:33:00,
2013-03-27 23:43:00,38.0,22.0,-100.00,NW,326,4.0,5.0,52,0.00,,,0.00,,2013-03-28 03:43:00,
2013-03-27 23:53:00,39.0,22.0,-100.00,NW,322,5.0,9.0,51,0.00,,,0.00,,2013-03-28 03:53:00,